Date String (YYYY-MM-DD hh:mm:ss) UTC,Instrument flags,Ambient pressure (hPa),Sample flow (lpm),Bypass flow (lpm),Sample temperature (°C),Ambient temperature (°C),ASC tube jacket temperature (°C),LED temperature (°C),Box temperature (°C),Sample RH (%),Span deviation,Mass concentration (μg/m³),Mass concentration (μg/m³),Mass concentration (μg/m³)
DateTimeUTC,F1_M11,P_M11,Q1_M11,Q2_M11,T1_M11,T2_M11,T3_M11,T4_M11,T5_M11,U1_M11,ZSPAN_M11,X0_M11,X2_M11,X1_M11
2021-08-19 23:00:00,,0824.0,5.00,0.00,31.3,28.5,00.0,39.8,32.1,34.1,0000.7,0018.29,0008.82,0007.62
2021-08-19 23:01:00,,0824.0,5.00,0.00,31.3,28.7,00.0,39.9,32.1,34.1,0000.7,0018.36,0008.80,0007.62
2021-08-19 23:02:00,,0824.1,5.00,0.00,31.3,28.8,00.0,39.9,32.2,34.6,0000.9,0017.78,0008.77,0007.63
2021-08-19 23:03:00,,0824.0,5.00,0.00,31.3,29.0,00.0,39.9,32.2,34.3,0001.1,0017.53,0008.75,0007.66
2021-08-19 23:04:00,,0824.0,4.99,0.00,31.3,29.1,00.0,40.0,32.3,34.4,0000.7,0018.03,0008.69,0007.67
2021-08-19 23:05:00,,0824.0,5.00,0.00,31.3,28.2,00.0,40.0,32.0,34.8,0000.5,0017.82,0008.70,0007.69
2021-08-19 23:06:00,,0824.0,5.00,0.00,31.2,26.6,00.0,39.9,31.6,35.3,0000.6,0017.61,0008.68,0007.69
2021-08-19 23:07:00,,0824.0,5.01,0.00,31.3,26.0,00.0,39.9,31.5,35.5,0000.8,0017.83,0008.68,0007.69
2021-08-19 23:08:00,,0824.0,5.00,0.00,31.5,26.3,00.0,39.9,31.8,35.2,0000.6,0017.79,0008.76,0007.70
2021-08-19 23:09:00,,0823.9,4.99,0.00,31.7,26.7,00.0,39.9,31.9,33.3,0000.9,0016.66,0008.82,0007.73
2021-08-19 23:10:00,,0823.9,5.00,0.00,31.8,27.2,00.0,39.9,32.0,32.9,0001.0,0016.19,0008.79,0007.74
2021-08-19 23:11:00,,0823.9,5.00,0.00,31.9,27.5,00.0,39.9,32.0,32.6,0001.4,0015.43,0008.79,0007.74
2021-08-19 23:12:00,,0823.9,5.00,0.00,31.9,27.9,00.0,40.0,32.0,32.5,0001.5,0015.38,0008.79,0007.74
2021-08-19 23:13:00,,0824.0,4.99,0.00,31.9,28.1,00.0,40.0,32.1,33.0,0001.7,0015.55,0008.81,0007.75
2021-08-19 23:14:00,,0823.9,5.01,0.00,31.9,28.4,00.0,40.1,32.1,33.7,0001.6,0015.42,0008.83,0007.73
2021-08-19 23:15:00,,0824.0,4.99,0.00,31.9,28.6,00.0,40.1,32.2,34.2,0001.8,0014.86,0008.88,0007.72
2021-08-19 23:16:00,,0824.0,5.00,0.00,31.9,28.8,00.0,40.2,32.2,34.3,0001.9,0014.23,0008.84,0007.70
2021-08-19 23:17:00,,0824.0,5.00,0.00,31.8,28.9,00.0,40.2,32.3,34.5,0001.9,0014.09,0008.79,0007.69
2021-08-19 23:18:00,,0824.0,5.00,0.00,31.8,29.1,00.0,40.3,32.3,34.3,0001.9,0014.25,0008.81,0007.69
2021-08-19 23:19:00,,0824.0,5.01,0.00,31.8,28.8,00.0,40.3,32.2,33.7,0001.9,0014.12,0008.77,0007.68
2021-08-19 23:20:00,,0823.9,4.99,0.00,31.7,27.2,00.0,40.3,31.8,33.9,0002.1,0014.24,0008.78,0007.68
2021-08-19 23:21:00,,0824.0,4.99,0.00,31.5,26.1,00.0,40.2,31.4,34.1,0002.1,0014.34,0008.80,0007.70
2021-08-19 23:22:00,,0824.0,5.01,0.00,31.3,26.1,00.0,40.2,31.5,34.6,0002.0,0014.35,0008.79,0007.70
2021-08-19 23:23:00,,0824.0,5.00,0.00,31.2,26.6,00.0,40.1,31.6,34.7,0001.8,0014.61,0008.80,0007.71
2021-08-19 23:24:00,,0824.1,4.99,0.00,31.1,27.0,00.0,40.1,31.7,34.8,0001.8,0014.58,0008.78,0007.71
2021-08-19 23:25:00,,0824.2,4.99,0.00,31.1,27.4,00.0,40.0,31.8,35.0,0001.6,0014.54,0008.78,0007.72
2021-08-19 23:26:00,,0824.2,5.02,0.00,31.1,27.8,00.0,40.0,31.9,34.3,0001.8,0015.09,0008.79,0007.73
2021-08-19 23:27:00,,0824.4,5.00,0.00,31.1,28.1,00.0,40.0,31.9,34.4,0001.5,0015.38,0008.80,0007.74
2021-08-19 23:28:00,,0824.4,5.01,0.00,31.1,28.3,00.0,40.0,32.0,34.6,0001.2,0015.26,0008.81,0007.74
2021-08-19 23:29:00,,0824.5,4.99,0.00,31.1,28.5,00.0,40.0,32.0,34.8,0001.0,0014.83,0008.77,0007.74
2021-08-19 23:30:00,,0824.4,4.99,0.00,31.1,28.7,00.0,40.0,32.1,35.1,0001.2,0015.18,0008.82,0007.74
2021-08-19 23:31:00,,0824.6,5.00,0.00,31.3,28.8,00.0,40.0,32.2,34.9,0001.2,0015.02,0008.80,0007.75
2021-08-19 23:32:00,,0824.5,5.01,0.00,31.5,29.0,00.0,40.0,32.3,35.2,0001.2,0014.95,0008.79,0007.73
2021-08-19 23:33:00,,0824.7,5.00,0.00,31.8,29.0,00.0,40.0,32.5,35.3,0001.0,0015.44,0008.77,0007.73
2021-08-19 23:34:00,,0824.7,5.01,0.00,32.1,27.7,00.0,40.0,32.3,35.3,0000.9,0015.86,0008.80,0007.75
2021-08-19 23:35:00,,0824.5,4.99,0.00,32.2,26.2,00.0,40.0,31.9,34.6,0001.0,0016.06,0008.90,0007.79
2021-08-19 23:36:00,,0824.7,5.00,0.00,32.3,25.9,00.0,40.0,31.8,34.3,0001.2,0016.24,0009.00,0007.89
2021-08-19 23:37:00,,0824.8,5.00,0.00,32.3,26.3,00.0,40.1,31.8,33.9,0001.1,0015.89,0008.99,0007.91
2021-08-19 23:38:00,,0824.6,5.01,0.00,32.2,26.7,00.0,40.1,31.9,34.0,0001.4,0015.67,0008.97,0007.89
2021-08-19 23:39:00,,0824.5,5.00,0.00,32.1,27.2,00.0,40.2,31.9,33.6,0001.7,0015.90,0009.01,0007.86
2021-08-19 23:40:00,,0824.6,5.00,0.00,32.1,27.5,00.0,40.2,32.0,28.7,0001.9,0016.25,0008.86,0007.69
2021-08-19 23:41:00,,0824.7,4.98,0.00,32.0,27.8,00.0,40.3,32.0,32.3,0001.8,0016.01,0008.70,0007.52
2021-08-19 23:42:00,,0824.7,5.01,0.00,32.0,28.0,00.0,40.3,32.0,32.5,0001.6,0016.67,0008.71,0007.44
2021-08-19 23:43:00,,0824.6,4.99,0.00,31.9,28.3,00.0,40.3,32.0,30.6,0001.7,0017.01,0008.69,0007.32
2021-08-19 23:44:00,,0824.6,5.01,0.00,31.9,28.4,00.0,40.4,32.0,29.4,0002.0,0016.30,0008.46,0007.10
2021-08-19 23:45:00,,0824.6,5.01,0.00,31.8,28.5,00.0,40.4,32.1,31.8,0002.1,0015.47,0008.28,0006.91
2021-08-19 23:46:00,,0824.4,4.99,0.00,31.8,28.6,00.0,40.4,32.1,32.7,0002.3,0015.28,0008.16,0006.73
2021-08-19 23:47:00,,0824.3,5.01,0.00,31.8,28.7,00.0,40.4,32.1,33.3,0002.2,0014.93,0007.96,0006.52
2021-08-19 23:48:00,,0824.2,4.98,0.00,31.7,28.8,00.0,40.4,32.2,33.8,0002.1,0015.05,0007.90,0006.37
2021-08-19 23:49:00,,0824.3,5.00,0.00,31.7,28.3,00.0,40.4,32.0,33.8,0001.9,0014.84,0007.77,0006.24
2021-08-19 23:50:00,,0824.1,4.99,0.00,31.6,26.6,00.0,40.3,31.6,35.7,0001.8,0014.64,0007.68,0006.13
2021-08-19 23:51:00,,0824.2,5.02,0.00,31.6,25.7,00.0,40.3,31.5,36.1,0001.6,0014.65,0007.81,0006.16
2021-08-19 23:52:00,,0824.2,5.00,0.00,31.7,25.8,00.0,40.2,31.6,33.5,0001.7,0014.59,0007.72,0006.13
2021-08-19 23:53:00,,0824.3,5.00,0.00,31.8,26.3,00.0,40.2,31.7,34.3,0001.9,0013.62,0007.51,0006.01
2021-08-19 23:54:00,,0824.2,4.99,0.00,31.8,26.8,00.0,40.2,31.8,35.9,0001.3,0013.34,0007.41,0005.95
2021-08-19 23:55:00,,0824.2,5.01,0.00,32.1,27.2,00.0,40.2,32.0,36.8,0001.3,0013.69,0007.57,0005.99
2021-08-19 23:56:00,,0824.2,4.99,0.00,32.4,27.6,00.0,40.2,32.2,34.4,0001.3,0013.71,0007.57,0005.98
2021-08-19 23:57:00,,0824.2,4.98,0.00,32.6,27.9,00.0,40.2,32.3,31.9,0001.4,0013.25,0007.37,0005.87
2021-08-19 23:58:00,,0824.2,5.00,0.00,32.6,28.1,00.0,40.3,32.3,31.7,0001.6,0012.96,0007.18,0005.73
2021-08-19 23:59:00,,0824.3,5.01,0.00,32.7,28.3,00.0,40.4,32.3,31.5,0001.7,0012.23,0006.95,0005.60
